Location: Griffin Ranch
(33.6186°N, 110.6622°W)
Time: 07:09:45
(UTC-07:00)

Daily predictions for brighter satellites

Satellite Brightness Start Highest point End
(mag) Time Altitude Azimuth Time Altitude Azimuth Time Altitude Azimuth
PSLV R/B 3.7 18:02:38 10° SW 18:05:37 42° SSE 18:08:35 10° ENE
CZ-4C R/B 2.2 18:00:55 10° S 18:05:46 51° ESE 18:11:09 10° NE
Cosmos 1703 3.3 18:04:02 10° N 18:07:55 58° E 18:11:44 10° SSE
Cosmos 1908 3.5 18:05:42 10° SSE 18:09:28 48° E 18:13:15 10° NNE
SL-16 R/B 3.6 18:05:08 10° NW 18:10:31 45° WSW 18:15:52 10° S
RESURS DK-1 2.3 18:10:14 10° NNW 18:14:20 66° ENE 18:18:25 10° SSE
Cosmos 1626 2.3 18:11:11 10° N 18:14:55 79° W 18:18:38 10° S
COSMO-SKYMED 1 2.6 18:12:24 10° NNE 18:16:44 64° E 18:21:01 10° S
OAO 1 Rocket 4.5 18:13:52 10° W 18:19:11 78° N 18:24:05 12° E
Ariane Rocket 4.2 18:15:01 10° S 18:19:53 47° W 18:24:49 10° NNW
CZ-3 Stage 3 1.0 18:20:04 10° WSW 18:21:52 31° S 18:23:20 12° ESE
Cosmos 2237 4.4 18:16:21 10° N 18:21:56 52° ENE 18:27:28 10° SE
BREEZE-M DEB (TANK) 3.5 18:22:55 10° W 18:24:37 18° NW 18:26:11 10° NNE
Atlas Centaur 2 2.5 18:22:00 10° W 18:26:01 43° S 18:31:02 10° ESE
Cosmos 2237 Rocket 3.9 18:24:07 10° NNE 18:26:12 12° NE 18:27:16 11° ENE
Cosmos 2151 3.1 18:23:25 10° N 18:27:41 78° W 18:31:54 10° S
Cosmos 1805 Rocket 4.4 18:24:35 10° NNE 18:28:24 28° ENE 18:32:12 10° SE
Cosmos 2227 Rocket 3.3 18:25:53 10° SSE 18:30:03 22° E 18:34:03 11° NE
GRACE-2 3.6 18:30:24 10° S 18:32:57 84° W 18:35:30 10° N
Cosmos 2058 3.4 18:30:03 10° NNW 18:34:11 65° W 18:38:15 10° S
YAOGAN 1 2.9 18:30:10 10° S 18:34:27 69° WSW 18:38:46 10° NNW
Cosmos 1400 Rocket 4.2 18:31:38 10° NNW 18:35:26 42° W 18:39:08 10° SSW
Cosmos 1300 3.5 18:32:52 10° SSE 18:36:09 28° E 18:39:28 10° NNE
USA 267 4.2 18:32:24 14° ENE 18:36:46 26° ESE 18:42:04 10° S
GRACE-1 4.1 18:35:16 10° S 18:37:48 62° W 18:40:21 10° N
ALOS 2.5 18:34:38 10° SSE 18:39:06 48° ENE 18:43:35 10° N
Cosmos 1269 Rocket 4.0 18:37:19 10° SSW 18:42:35 90° ESE 18:47:53 10° NNE
Cosmos 1633 Rocket 4.2 18:39:45 10° NNE 18:43:08 21° ENE 18:43:25 21° E
Abrixas 4.4 18:41:58 10° WNW 18:43:18 15° NNW 18:44:32 11° N
Cosmos 2360 Rocket 2.9 18:42:07 10° NNW 18:47:40 58° WSW 18:53:11 10° S
DMSP B5D1-3 4.4 18:42:46 10° NNE 18:47:55 83° ESE 18:53:04 10° S
Aureole 2 Rocket 3.5 18:45:17 10° N 18:48:53 32° ENE 18:50:14 25° ESE
BREEZE-M DEB (TANK) 1.2 18:48:20 10° NW 18:50:18 69° SW 18:51:17 29° SE
SPOT 3 Rocket 3.6 18:46:35 10° SSE 18:51:47 86° WSW 18:57:01 10° NNW
Hubble Space Telescope 2.2 18:50:10 10° SW 18:53:36 25° SSE 18:55:02 21° SE
CZ-4 R/B 4.0 18:50:28 10° SSW 18:53:56 25° W 18:57:24 10° NW
Cosmos 1934 Rocket 4.0 18:48:16 10° S 18:54:29 59° E 19:00:43 10° NNE
Cosmos 1821 Rocket 3.9 18:48:26 10° S 18:54:33 81° E 19:00:49 10° N
Cosmos 1000 Rocket 4.4 18:51:35 10° N 18:57:48 78° E 19:03:57 10° S
COSMOS 2428 2.6 18:52:57 10° NNW 18:58:38 72° ENE 19:04:18 10° SSE
Cosmos 2219 3.6 18:53:37 10° SSW 18:59:19 65° WNW 19:05:02 10° NNE
FENGYUN 3A 3.5 18:54:20 10° SSE 18:59:42 77° ENE 19:05:07 10° N
Cosmos 1452 Rocket 4.5 18:54:45 10° NNW 18:59:49 49° WSW 19:04:51 10° S
Cosmos 2221 3.6 18:55:49 10° SSW 18:59:57 46° W 19:04:09 10° N
Cosmos 2239 Rocket 4.4 18:54:22 10° S 19:00:30 90° W 19:06:41 10° N
Centaur D AC-28 3.7 18:57:18 10° SSW 19:00:53 26° SE 19:03:27 22° ESE
Centaur AC-112 3.5 18:53:54 10° WSW 19:01:00 33° SSW 19:02:22 23° SE
Cosmos 2333 Rocket 2.7 18:56:15 10° N 19:01:35 37° ENE 19:03:41 28° ESE
Delta 2 Rocket 2.9 18:58:49 10° WNW 19:02:39 75° N 19:03:28 50° E
Iridium 4 Rocket 3.9 18:57:37 10° S 19:03:07 77° W 19:08:59 10° N
Cosmos 494 Rocket 3.9 19:01:30 10° S 19:06:28 56° ESE 19:10:55 13° NNE
Cosmos 2098 Rocket 3.7 19:02:53 10° SSW 19:07:11 67° W 19:12:43 10° N
Cosmos 2297 Rocket 2.6 19:02:05 10° S 19:07:16 39° ESE 19:08:58 31° ENE
Cosmos 1726 3.1 19:09:51 10° SSW 19:13:25 46° W 19:16:59 10° N
Meteor 2-10 3.8 19:09:49 10° S 19:14:50 87° E 19:19:57 10° N
Cosmos 1110 Rocket 4.3 19:11:31 10° N 19:16:34 43° ENE 19:16:55 43° E
Cosmos 2082 3.9 19:11:19 10° S 19:16:45 47° ESE 19:18:17 38° ENE
ASTRO E2 3.8 19:14:27 10° W 19:18:06 35° SSW 19:18:58 31° SSE
Meteor 2-2 Rocket 4.1 19:12:42 10° S 19:18:21 67° E 19:23:57 10° NNE
FengYun 1-2 T 4.1 19:17:56 10° SSE 19:23:24 73° ENE 19:28:52 10° N
Cosmos 1605 Rocket 3.8 19:22:54 10° S 19:29:01 77° E 19:35:06 10° N
Cosmos 2123 Rocket 3.9 19:23:20 10° N 19:29:36 78° E 19:35:53 10° S
Cosmos 1153 Rocket 4.5 19:27:17 10° SSE 19:33:12 53° E 19:39:12 10° NNE
Cosmos 2219 Rocket 2.1 19:29:21 10° NNW 19:34:59 89° ENE 19:37:22 36° SSE
Cosmos 2251 Rocket 3.3 19:30:42 10° S 19:35:57 79° ESE 19:37:16 52° NNE
DELTA 2 R/B (1) 3.8 19:36:15 10° WNW 19:41:45 62° SSW 19:42:41 53° SSE
BREEZE-M R/B 4.4 19:41:22 10° W 19:42:53 24° WNW 19:42:53 24° WNW
Sich 1 4.2 19:47:58 10° NNW 19:52:07 42° W 19:56:03 11° SSW
H-2A R/B 4.2 19:54:20 36° WNW 19:54:20 36° WNW 19:57:21 10° NNW
CZ-4C R/B 4.4 19:50:44 10° W 19:54:38 20° NW 19:58:53 10° N
NOSS 0 Rocket 3.8 19:48:52 10° NNW 19:55:03 87° WSW 19:55:45 72° S
MOS 1-B Rocket 4.1 20:00:08 58° N 20:00:08 58° N 20:04:57 10° N
Cosmos 2237 Rocket 2.9 20:05:15 10° NNW 20:09:09 45° NNW 20:09:09 45° NNW
Cosmos 2227 Rocket 3.3 20:08:25 10° SW 20:13:44 42° WNW 20:16:00 29° NNW
Atlas Centaur 2 3.9 20:10:56 10° WSW 20:14:02 21° SSW 20:14:02 21° SSW
Gbstr 26 Del rocket 4.2 20:11:13 10° NW 20:15:52 60° W 20:15:52 60° W
USA 267 3.4 20:19:48 68° NNW 20:20:01 69° NW 20:26:28 10° SW
SL-16 R/B 4.4 20:17:40 10° N 20:18:33 14° N 20:18:33 14° N
Cosmos 2333 Rocket 4.1 20:40:59 10° NW 20:45:34 25° WSW 20:45:47 25° WSW
Cosmos 2297 Rocket 4.2 20:46:49 10° WSW 20:50:54 24° WNW 20:50:54 24° WNW
